RESURS O1

导读 | 豆包AI

RESURS-O1是独联体(CIS)于1994年11月4日08:00发射的遥感卫星,隶属于“资源”系列地球观测项目,主要用于获取陆地资源遥感影像,支持环境监测、农业估产、灾害评估与地质勘探等领域研究。该卫星延续了苏联对地观测技术体系,继承了早期Resurs系列卫星的设计框架,携带多光谱光学成像载荷,为独联体及全球提供地球表面观测数据,是冷战后独联体开展空间对地观测的重要早期卫星。

基本信息
目录编号:
23342
目录名称:
RESURS O1
国际标识:
1994-074A
轨道中心:
EARTH
卫星名称:
RESURS O1
卫星全名:
--
卫星状态:
在轨 (已飞行11443 天)
发射日期:
1994-11-04 UTC
国别 :
俄罗斯(独联体) (CIS)
星等 :
--
轨道信息
数据来源 国际轨道数据 AOE轨道数据
星历时间 2026-03-03T23:02:24+0800
15小时前
查看轨道信息
2026-02-27T09:00:00+0800
5天前
查看轨道信息
半长轴 6991.946km 6991.954km
偏心率 0.0002129 0.0002102
轨道倾角 97.672° 97.673°
近地点辐角 83.876° 88.150°
升交点赤经 85.072° 80.656°
平近点角 276.270° 256.955°
近地点 612.32km 612.347km
远地点 615.298km 615.287km
周期 96.974分钟 96.974分钟
每日圈数 14.849292 14.849266
详细信息
使用方式:
暂无
2D轨道图
3D轨道图
轨道高度分析图
轨道倾角分析图
轨道综合分析图
查看轨道综合分析图